Вернуться в каталог

PEGASUS DEB

АктивенPO
NORAD 24980·DEBRIS·🇺🇸 United States

Запущен May 19, 1994 с Vandenberg Space Force Base

Loading…

Ближайшие Пролёты (ближайшие 24 часа)

TLE

СвежийSource: Space-Track

Эпоха: Sep 13, 2026, 22:33 UTC

1 24980U 94029ACN 26256.94009168  .00016208  00000-0  11997-2 0  9991
2 24980  81.5671  84.9609 0133679  52.9166 308.4184 14.96079184561398

Отслеживайте PEGASUS DEB в реальном времени с AllMySat

Download on the App Store